{"data":{"norad_id":49173,"intl_designator":"2021-082AV","name":"STARLINK-3045","alt_names":[],"object_type":"PAYLOAD","status":"ACTIVE","operator":null,"country":"US","launch_date":"2021-09-14","launch_site_code":"AFWTR","launch_vehicle":null,"mission":null,"orbit_class":"UNKNOWN","rcs_meters":null,"size_class":null,"mass_kg":null,"dimensions":null,"purposes":["comms"],"wikipedia_slug":null,"has_3d_model":false,"image_url":null,"decayed_at":null,"tle_current":{"epoch":"2026-05-25T03:05:34.482048Z","epoch_age_seconds":67409,"freshness":"FRESH","line1":"1 49173U 21082AV  26145.12887132 -.00000170  00000+0 -64784-5 0  9990","line2":"2 49173  70.0000  81.7193 0002408 266.0306  94.0577 14.98324417257929","mean_motion":14.98324417,"eccentricity":0.0002408,"inclination_deg":70,"raan_deg":81.7193,"arg_perigee_deg":266.0306,"mean_anomaly_deg":94.0577,"bstar":-6.4784e-6,"rev_number":25792,"period_min":96.107357235973,"perigee_km":570.39954535943,"apogee_km":573.74676657054,"semimajor_km":6950.210155965,"source":"CELESTRAK","updated_at":"2026-05-25T13:38:16.792551Z"}}}